When you browse on this site, cookies collect data to enhance your experience and personalize the content and advertising you see.
Visit our Privacy Policy to learn more. By continuing to use the site, you agree to this use of cookies and data.
  • In Latvia
  • List of Countries
  • For 7 days
  • Water Temperature
  • Weather Map
  • Weather Widgets
  • user-avatar
    Login

    Hourly Weather Newcastle

    Today, 21 September, Saturday

    Time Temperature Precipitation Wind Pressure Humidity
    00:00 +10°C° 0 mm 5 mps 750 mmHg 83%
    01:00 +10°C° 0 mm 5 mps 749 mmHg 82%
    02:00 +10°C° 0 mm 5 mps 749 mmHg 81%
    03:00 +10°C° 0 mm 5 mps 748 mmHg 81%
    04:00 +10°C° 0 mm 5 mps 748 mmHg 82%
    05:00 +9°C° 0 mm 5 mps 747 mmHg 82%
    06:00 +10°C° 0 mm 4 mps 747 mmHg 82%
    07:00 +12°C° 0 mm 5 mps 747 mmHg 79%
    08:00 +13°C° 0 mm 6 mps 746 mmHg 75%
    09:00 +14°C° 0 mm 6 mps 746 mmHg 72%
    10:00 +16°C° 0 mm 6 mps 746 mmHg 68%
    11:00 +17°C° 0 mm 7 mps 745 mmHg 64%
    12:00 +20°C° 0 mm 7 mps 745 mmHg 59%
    13:00 +20°C° 0 mm 6 mps 744 mmHg 59%
    14:00 +21°C° 0 mm 6 mps 744 mmHg 59%
    15:00 +21°C° 0 mm 6 mps 743 mmHg 59%
    16:00 +20°C° 0 mm 5 mps 743 mmHg 62%
    17:00 +19°C° 0 mm 5 mps 742 mmHg 66%
    18:00 +16°C° 0 mm 5 mps 742 mmHg 69%
    19:00 +16°C° 0 mm 5 mps 742 mmHg 70%
    20:00 +16°C° 0 mm 5 mps 742 mmHg 71%
    21:00 +15°C° 0 mm 5 mps 741 mmHg 72%
    22:00 +15°C° 0.2 mm 5 mps 741 mmHg 76%
    23:00 +15°C° 0.2 mm 5 mps 741 mmHg 80%

    Tomorrow, 22 September, Sunday

    Time Temperature Precipitation Wind Pressure Humidity
    00:00 +15°C° 0.2 mm 5 mps 740 mmHg 84%
    01:00 +15°C° 0.2 mm 5 mps 740 mmHg 86%
    02:00 +15°C° 0.2 mm 4 mps 739 mmHg 89%
    03:00 +15°C° 0.2 mm 4 mps 739 mmHg 91%
    04:00 +15°C° 0.1 mm 4 mps 739 mmHg 92%
    05:00 +15°C° 0.1 mm 4 mps 739 mmHg 93%
    06:00 +16°C° 0.1 mm 3 mps 739 mmHg 94%
    07:00 +17°C° 0 mm 3 mps 739 mmHg 93%
    08:00 +17°C° 0 mm 3 mps 739 mmHg 93%
    09:00 +18°C° 0 mm 3 mps 739 mmHg 92%
    10:00 +17°C° 1 mm 3 mps 739 mmHg 93%
    11:00 +16°C° 1 mm 3 mps 739 mmHg 93%
    12:00 +16°C° 1 mm 3 mps 739 mmHg 94%
    13:00 +14°C° 1.5 mm 3 mps 739 mmHg 94%
    14:00 +14°C° 1.5 mm 3 mps 739 mmHg 95%
    15:00 +15°C° 1.5 mm 2 mps 739 mmHg 95%
    16:00 +15°C° 0.6 mm 2 mps 739 mmHg 95%
    17:00 +15°C° 0.6 mm 2 mps 739 mmHg 95%
    18:00 +15°C° 0.6 mm 2 mps 740 mmHg 94%
    19:00 +14°C° 0.1 mm 2 mps 740 mmHg 94%
    20:00 +14°C° 0.1 mm 2 mps 740 mmHg 94%
    21:00 +13°C° 0.1 mm 2 mps 741 mmHg 94%
    22:00 +13°C° 0 mm 2 mps 741 mmHg 94%
    23:00 +13°C° 0 mm 2 mps 741 mmHg 95%

    Day after tomorrow, 23 September, Monday

    Time Temperature Precipitation Wind Pressure Humidity
    00:00 +12°C° 0 mm 2 mps 741 mmHg 95%
    01:00 +12°C° 0 mm 2 mps 741 mmHg 95%
    02:00 +12°C° 0 mm 2 mps 741 mmHg 95%
    03:00 +10°C° 0 mm 2 mps 741 mmHg 95%
    04:00 +10°C° 0 mm 2 mps 741 mmHg 95%
    05:00 +10°C° 0 mm 2 mps 742 mmHg 95%
    06:00 +10°C° 0 mm 3 mps 742 mmHg 95%
    07:00 +11°C° 0 mm 3 mps 742 mmHg 92%
    08:00 +12°C° 0 mm 3 mps 742 mmHg 89%
    09:00 +14°C° 0 mm 4 mps 742 mmHg 86%
    10:00 +14°C° 0 mm 4 mps 742 mmHg 82%
    11:00 +15°C° 0 mm 5 mps 742 mmHg 77%
    12:00 +16°C° 0 mm 5 mps 743 mmHg 73%
    13:00 +16°C° 0.1 mm 5 mps 742 mmHg 74%
    14:00 +15°C° 0.1 mm 6 mps 742 mmHg 76%
    15:00 +15°C° 0.1 mm 6 mps 741 mmHg 78%
    16:00 +14°C° 0.1 mm 6 mps 741 mmHg 82%
    17:00 +14°C° 0.1 mm 6 mps 740 mmHg 85%
    18:00 +12°C° 0.1 mm 7 mps 740 mmHg 89%
    19:00 +13°C° 0 mm 6 mps 740 mmHg 90%
    20:00 +13°C° 0 mm 5 mps 739 mmHg 91%
    21:00 +14°C° 0 mm 5 mps 739 mmHg 93%
    22:00 +14°C° 0.1 mm 5 mps 739 mmHg 94%
    23:00 +14°C° 0.1 mm 5 mps 738 mmHg 95%

    24 September, Tuesday

    Time Temperature Precipitation Wind Pressure Humidity
    00:00 +14°C° 0.1 mm 5 mps 738 mmHg 95%
    01:00 +14°C° 0.2 mm 5 mps 737 mmHg 95%
    02:00 +14°C° 0.2 mm 5 mps 737 mmHg 94%
    03:00 +14°C° 0.2 mm 5 mps 736 mmHg 94%
    04:00 +14°C° 1.1 mm 4 mps 735 mmHg 95%
    05:00 +14°C° 1.1 mm 4 mps 735 mmHg 95%
    06:00 +14°C° 1.1 mm 4 mps 734 mmHg 96%
    07:00 +14°C° 2.6 mm 3 mps 734 mmHg 94%
    08:00 +15°C° 2.6 mm 2 mps 734 mmHg 92%
    09:00 +15°C° 2.6 mm 2 mps 734 mmHg 90%
    10:00 +16°C° 0.5 mm 3 mps 734 mmHg 86%
    11:00 +17°C° 0.5 mm 4 mps 734 mmHg 81%
    12:00 +17°C° 0.5 mm 5 mps 734 mmHg 77%
    13:00 +16°C° 0.8 mm 6 mps 734 mmHg 78%
    14:00 +16°C° 0.8 mm 6 mps 734 mmHg 78%
    15:00 +15°C° 0.8 mm 7 mps 734 mmHg 79%
    16:00 +14°C° 0.1 mm 6 mps 735 mmHg 80%
    17:00 +13°C° 0.1 mm 5 mps 735 mmHg 81%
    18:00 +12°C° 0.1 mm 4 mps 735 mmHg 82%
    19:00 +11°C° 0 mm 4 mps 736 mmHg 84%
    20:00 +10°C° 0 mm 4 mps 736 mmHg 85%
    21:00 +8°C° 0 mm 4 mps 736 mmHg 87%
    22:00 +8°C° 0 mm 4 mps 736 mmHg 87%
    23:00 +8°C° 0 mm 4 mps 736 mmHg 87%

    25 September, Wednesday

    Time Temperature Precipitation Wind Pressure Humidity
    00:00 +8°C° 0 mm 4 mps 735 mmHg 88%
    01:00 +9°C° 0.2 mm 5 mps 735 mmHg 89%
    02:00 +9°C° 0.2 mm 5 mps 735 mmHg 91%
    03:00 +10°C° 0.2 mm 6 mps 735 mmHg 93%
    04:00 +10°C° 0.5 mm 5 mps 734 mmHg 93%
    05:00 +10°C° 0.5 mm 5 mps 734 mmHg 94%
    06:00 +12°C° 0.5 mm 5 mps 734 mmHg 94%
    07:00 +12°C° 0.5 mm 5 mps 734 mmHg 93%
    08:00 +12°C° 0.5 mm 5 mps 734 mmHg 92%
    09:00 +13°C° 0.5 mm 5 mps 734 mmHg 91%
    10:00 +14°C° 0.3 mm 5 mps 734 mmHg 88%
    11:00 +15°C° 0.3 mm 5 mps 733 mmHg 85%
    12:00 +15°C° 0.3 mm 5 mps 733 mmHg 82%
    13:00 +15°C° 0.6 mm 5 mps 733 mmHg 86%
    14:00 +14°C° 0.6 mm 5 mps 732 mmHg 90%
    15:00 +13°C° 0.6 mm 5 mps 732 mmHg 94%
    16:00 +13°C° 1.3 mm 5 mps 731 mmHg 95%
    17:00 +13°C° 1.3 mm 5 mps 731 mmHg 96%
    18:00 +14°C° 1.3 mm 5 mps 730 mmHg 97%
    19:00 +14°C° 1.5 mm 5 mps 730 mmHg 96%
    20:00 +14°C° 1.5 mm 5 mps 730 mmHg 95%
    21:00 +14°C° 1.5 mm 5 mps 729 mmHg 94%
    22:00 +14°C° 0.3 mm 6 mps 729 mmHg 93%
    23:00 +14°C° 0.3 mm 6 mps 729 mmHg 93%

    26 September, Thursday

    Time Temperature Precipitation Wind Pressure Humidity
    00:00 +13°C° 0.3 mm 6 mps 729 mmHg 92%
    01:00 +13°C° 0.5 mm 6 mps 729 mmHg 93%
    02:00 +13°C° 0.5 mm 5 mps 729 mmHg 94%
    03:00 +13°C° 0.5 mm 5 mps 729 mmHg 95%
    04:00 +12°C° 0.8 mm 5 mps 729 mmHg 94%
    05:00 +11°C° 0.8 mm 6 mps 729 mmHg 93%
    06:00 +11°C° 0.8 mm 6 mps 729 mmHg 92%
    07:00 +13°C° 0 mm 6 mps 729 mmHg 88%
    08:00 +13°C° 0 mm 6 mps 729 mmHg 85%
    09:00 +13°C° 0 mm 6 mps 729 mmHg 81%
    10:00 +14°C° 0.3 mm 6 mps 729 mmHg 78%
    11:00 +14°C° 0.3 mm 6 mps 729 mmHg 76%
    12:00 +15°C° 0.3 mm 7 mps 729 mmHg 73%
    13:00 +14°C° 0.6 mm 6 mps 729 mmHg 75%
    14:00 +14°C° 0.6 mm 6 mps 729 mmHg 77%
    15:00 +14°C° 0.6 mm 6 mps 728 mmHg 79%
    16:00 +13°C° 0.6 mm 6 mps 728 mmHg 82%
    17:00 +12°C° 0.6 mm 5 mps 728 mmHg 86%
    18:00 +10°C° 0.6 mm 5 mps 728 mmHg 89%
    19:00 +10°C° 0.3 mm 5 mps 728 mmHg 91%
    20:00 +10°C° 0.3 mm 5 mps 728 mmHg 93%
    21:00 +10°C° 0.3 mm 5 mps 728 mmHg 95%
    22:00 +11°C° 1.8 mm 4 mps 728 mmHg 95%
    23:00 +11°C° 1.8 mm 4 mps 727 mmHg 96%
    Show more